Regional Weather Roundup
Issued by NWS

Home | Current Version | Previous Version | Graphics & Text | Print | Product List | Glossary On
Versions: 1 2 3 4 5 6 7 8 9 10 11 12 13 14 15 16 17 18 19 20 21 22 23 24 25 26 27 28 29 30 31 32 33 34 35 36 37 38 39 40 41 42 43 44 45 46 47 48 49 50
000
ASUS43 KBIS 170110
RWRND

NORTH DAKOTA REGIONAL WEATHER ROUNDUP
NATIONAL WEATHER SERVICE BISMARCK ND
800 PM CDT MON OCT 16 2017

NOTE: "FAIR" INDICATES FEW OR NO CLOUDS BELOW 12,000 FEET WITH NO
SIGNIFICANT WEATHER AND/OR OBSTRUCTIONS TO VISIBILITY.


NDZ001>003-009>011-017-170200-
NORTHWEST NORTH DAKOTA

CITY           SKY/WX    TMP DP  RH WIND       PRES   REMARKS
WILLISTON      CLEAR     54  32  43 S6        29.94S
MINOT          CLOUDY    55  35  47 SW9       29.91S
MINOT AFB      CLOUDY    50  32  50 SW7       29.89S
$$

NDZ018>021-031>035-040>046-170200-
SOUTHWEST NORTH DAKOTA

CITY           SKY/WX    TMP DP  RH WIND       PRES   REMARKS
BISMARCK       CLEAR     57  33  40 NW3       29.96R
DICKINSON      CLEAR     50  30  46 W5        29.98S
GARRISON         N/A     56  34  43 W9        29.94S
HETTINGER ARPT CLEAR     48  28  46 NW6       30.03R
$$

NDZ004>008-012>016-024-026-027-054-170200-
NORTHEAST NORTH DAKOTA

CITY           SKY/WX    TMP DP  RH WIND       PRES   REMARKS
GRAND FORKS    CLOUDY    53  37  54 W6        29.85S
GRND FRKS AFB  CLOUDY    54  35  49 W8        29.87R
DEVILS LAKE    CLOUDY    53  36  52 W7        29.90R
$$

NDZ022-023-025-028>030-036>039-047>053-170200-
SOUTHEAST NORTH DAKOTA

CITY           SKY/WX    TMP DP  RH WIND       PRES   REMARKS
FARGO          CLOUDY    55  39  54 W7        29.88R
JAMESTOWN      CLEAR     56  33  42 W7        29.91R
$$





USA.gov is the U.S. government's official web portal to all federal, state and local government web resources and services.